GFSMA_700_rhum_000.txt.gz
RH
12 10 10 11 13 13 14 15 17 17 16 15 15 16 18 20 22 22 22 22 23 22 23 24 24 24 24 24 24 25 25 26 26 27 28 29 30 31 31 33 33 32 33
15 14 13 14 15 16 17 16 16 17 18 19 18 16 17 19 22 23 23 24 23 24 24 25 26 26 26 25 25 26 26 25 26 27 28 29 29 29 30 33 34 35 35
17 15 13 14 17 15 12 14 16 18 20 21 22 22 20 18 20 22 24 25 25 24 26 26 27 27 27 26 25 25 26 26 26 28 30 29 28 29 30 35 37 33 36
23 23 17 13 11 10 10 13 17 19 21 22 22 23 24 24 22 20 21 23 26 26 25 26 27 27 27 28 27 26 26 26 27 29 31 31 30 30 31 38 40 36 36
19 22 20 14 10 9 9 13 18 20 23 24 25 25 24 25 26 26 23 21 22 24 26 28 28 28 29 29 30 30 28 27 28 30 30 31 31 32 35 45 42 40 38
32 29 30 27 20 16 12 15 20 22 25 27 27 28 27 27 26 26 27 27 24 22 23 24 26 28 29 29 29 30 30 28 30 31 30 31 33 37 48 47 48 41 44
50 31 40 32 28 26 21 18 20 23 26 28 28 27 28 27 26 26 26 28 28 26 24 23 24 24 25 28 28 28 30 30 31 31 31 32 36 44 47 50 45 46 47
51 39 44 44 38 29 26 23 21 23 26 29 28 26 25 25 24 26 27 26 26 28 27 25 24 24 25 25 26 27 29 31 34 33 33 36 43 49 51 46 46 47 52
46 45 40 38 42 40 35 30 27 25 25 30 28 29 30 30 30 27 25 25 26 26 27 30 28 26 28 30 30 30 33 36 34 34 34 40 46 50 52 47 48 51 54
46 42 40 36 40 38 34 32 31 25 25 30 30 31 33 33 33 32 29 27 26 28 29 30 34 32 34 33 34 35 37 39 38 38 41 48 57 56 53 50 50 52 56
42 41 34 35 35 37 35 32 32 26 26 32 30 32 34 35 35 36 33 30 30 27 27 31 30 33 33 36 35 38 40 43 42 42 46 60 65 54 54 53 54 54 58
28 28 29 30 32 32 31 32 30 24 27 32 32 34 36 37 37 38 38 36 33 32 30 27 31 33 34 38 37 40 46 48 48 48 54 61 66 55 55 56 54 53 54
27 30 31 30 29 28 28 27 27 28 31 33 35 36 38 38 39 39 39 39 37 35 36 34 25 31 36 37 48 45 46 53 59 56 63 68 64 58 57 55 53 53 57
31 30 26 26 24 24 27 35 37 36 35 36 35 34 36 36 38 40 40 41 42 40 37 35 31 26 31 37 45 56 53 61 71 71 70 72 62 57 56 53 54 57 59
42 41 40 37 39 40 38 39 36 35 36 36 36 38 40 40 39 42 44 44 40 39 46 44 34 33 31 51 40 43 55 57 70 78 79 68 62 59 57 56 58 60 65
50 51 50 47 47 48 47 46 45 45 45 44 44 43 43 43 42 40 43 38 38 41 48 48 46 43 43 37 65 74 76 76 71 65 66 59 59 75 78 57 60 66 71
37 40 48 54 57 60 62 62 61 60 56 56 57 60 62 59 51 48 46 45 52 47 58 44 53 52 47 48 65 94 76 74 72 55 45 45 61 71 71 58 63 69 73
48 47 43 39 39 46 53 62 66 67 68 68 66 66 73 73 72 76 87 83 90 89 58 49 58 56 52 54 76 97 99 81 82 56 41 48 64 77 90 60 64 73 73
40 38 35 37 37 40 49 53 54 55 58 62 70 70 65 65 67 78 77 79 68 68 69 72 62 63 78 71 74 98 99 95 93 72 54 55 66 89 98 67 69 75 80
36 34 32 29 28 28 28 27 38 42 42 54 60 65 71 74 76 71 55 64 66 67 76 84 80 71 79 84 88 99 97 95 99 96 78 64 62 100 90 63 75 75 80
45 43 40 38 36 32 27 33 38 40 42 41 44 61 71 76 75 78 66 61 75 77 96 93 85 96 89 93 91 98 99 99 98 99 94 73 93 96 72 63 69 77 88
36 35 35 36 37 38 38 38 41 40 38 42 48 52 67 81 86 88 78 64 65 79 99 99 98 90 94 98 99 98 99 99 99 96 99 86 88 84 67 67 71 82 68
28 28 31 34 38 42 46 48 47 46 44 47 46 50 63 66 76 93 92 81 63 64 93 98 94 98 92 96 100 98 99 99 99 99 99 99 97 89 74 74 76 84 17
12 14 21 30 38 47 54 61 59 59 53 48 48 48 49 59 69 87 99 93 82 65 71 84 89 97 89 100 99 99 99 99 98 98 99 98 94 87 78 81 85 50 6
4 10 19 32 47 60 65 64 64 61 60 55 49 44 44 46 57 59 66 88 89 81 77 85 96 97 98 97 99 99 98 99 98 99 98 98 93 82 88 89 72 8 8
2 2 5 21 45 58 69 80 88 78 66 64 55 46 44 46 46 56 74 84 88 86 82 84 93 92 96 98 99 99 97 96 99 99 99 98 96 94 91 86 18 7 16

GFSMA_700_rhum_003.txt.gz
RH
19 19 17 14 13 14 13 13 13 13 15 17 18 19 20 18 18 18 19 20 22 22 22 22 23 24 24 25 26 26 26 26 26 27 27 27 27 26 26 26 26 28 31
14 18 19 15 11 8 10 10 10 12 15 18 20 22 22 23 23 22 20 20 21 23 25 24 24 24 25 25 25 26 26 26 26 27 28 29 29 29 28 27 27 28 33
29 15 15 18 15 10 8 8 8 10 15 18 20 22 23 23 23 24 26 25 23 21 22 25 26 26 26 26 27 26 27 28 28 29 29 28 31 32 30 29 28 29 35
48 51 34 19 20 14 12 12 12 10 13 18 21 23 25 26 27 27 26 26 27 27 24 22 23 27 28 28 28 28 29 29 30 30 30 28 31 33 32 31 30 32 40
53 57 58 54 32 38 33 31 24 18 15 19 22 25 27 28 28 26 25 26 26 27 28 27 25 23 24 28 30 30 30 30 30 31 31 30 31 33 33 32 32 36 43
56 56 56 57 51 48 50 47 38 33 28 23 25 26 29 29 26 24 25 24 25 26 28 28 29 28 25 24 25 27 29 30 32 31 29 31 32 34 34 34 35 44 47
56 56 56 57 55 50 46 44 43 36 29 28 28 27 29 30 28 29 30 28 28 27 27 27 27 27 27 25 24 25 25 24 26 26 26 31 34 36 37 37 44 51 64
48 48 53 50 47 45 40 37 42 42 39 36 34 33 28 30 29 31 31 32 31 30 27 27 28 28 30 31 26 27 28 27 26 26 29 34 34 37 37 43 64 52 60
44 47 48 44 44 42 42 37 39 41 40 40 38 38 33 32 32 32 33 34 34 32 31 29 27 27 29 33 34 30 29 31 32 32 36 34 34 35 35 42 52 57 59
39 40 45 45 44 42 34 37 37 38 39 40 42 34 36 37 35 34 34 36 37 36 36 35 30 30 27 28 33 34 30 32 37 38 38 33 36 35 55 50 61 60 60
30 30 31 31 31 30 32 34 35 36 34 34 34 29 32 37 37 37 39 36 38 38 38 38 33 33 32 26 29 43 35 36 40 46 45 39 37 38 61 55 65 60 54
28 30 29 28 28 30 32 32 32 32 32 37 37 34 36 39 37 40 40 39 38 37 38 40 38 39 37 33 28 31 44 35 40 44 42 43 39 40 51 62 69 58 57
29 31 33 35 35 32 28 26 30 36 36 39 45 50 52 49 47 44 43 38 38 38 41 49 45 40 41 43 34 32 51 60 39 45 43 45 44 45 52 72 65 58 57
45 44 42 42 43 43 40 36 35 37 42 51 59 60 60 61 54 57 62 60 63 51 40 44 52 46 42 46 51 39 41 73 65 52 48 52 56 56 71 80 65 63 62
42 44 50 57 60 63 64 64 57 49 44 60 62 67 72 71 72 73 72 69 78 78 59 50 42 46 48 50 47 46 48 51 89 92 77 74 64 69 85 81 68 71 92
38 38 39 40 39 38 39 46 54 62 68 68 66 63 63 72 74 75 81 82 89 97 82 69 56 50 55 54 52 58 59 66 80 85 96 94 92 93 98 81 78 78 95
37 34 32 31 35 39 38 38 37 37 47 56 65 71 71 70 70 74 77 78 81 85 92 84 84 85 77 81 65 57 54 53 78 95 94 95 98 99 95 71 86 74 91
43 40 36 34 33 34 34 30 27 28 27 31 46 54 56 59 61 63 66 71 75 78 86 79 76 78 79 80 80 57 57 62 65 92 93 99 88 97 99 88 91 86 81
44 40 36 34 34 35 34 33 34 30 24 23 24 26 28 39 46 62 72 76 78 81 85 90 80 81 84 97 99 75 71 74 78 78 99 88 92 99 98 99 98 92 99
41 37 33 30 28 26 27 28 30 32 32 30 28 28 30 35 42 47 61 76 83 87 84 86 92 80 90 93 96 97 79 76 85 95 95 99 100 98 92 99 99 90 99
30 19 9 6 7 12 18 30 36 35 34 32 33 35 38 38 37 45 63 63 75 82 82 82 86 89 90 100 80 99 97 94 96 98 97 100 99 98 99 99 92 98 91
0 0 0 0 0 0 1 15 41 37 46 42 46 46 48 47 45 45 48 65 73 88 96 91 84 85 82 87 94 99 84 99 99 99 99 99 99 99 99 99 95 98 95
4 4 3 2 2 1 1 21 55 56 44 62 66 64 56 57 56 52 46 45 55 65 82 98 96 90 86 83 98 98 81 90 99 98 99 99 99 99 98 99 98 98 90
6 6 5 4 3 3 6 24 74 82 62 78 91 88 77 66 65 58 49 42 39 40 54 62 61 70 80 90 91 90 98 98 99 99 99 99 99 99 98 100 98 91 87
8 7 6 5 4 4 10 18 34 39 61 79 83 92 91 80 76 67 59 48 41 38 46 56 64 70 77 100 97 98 93 98 98 97 99 99 99 99 98 98 97 93 92
9 8 7 6 5 5 7 10 19 27 34 54 76 85 90 90 79 69 62 53 44 40 41 44 56 82 76 97 97 99 95 98 99 99 99 99 99 99 98 98 93 93 73

GFSMA_700_rhum_009.txt.gz
RH
42 42 44 47 43 28 21 20 18 19 18 18 17 16 18 20 21 21 22 24 24 25 25 25 24 22 23 24 26 28 28 28 28 28 29 30 31 31 31 31 31 29 29
52 53 50 50 57 56 57 52 43 42 47 43 36 33 22 17 17 19 22 25 27 28 28 27 27 27 26 24 24 25 28 29 30 30 31 31 32 33 33 33 34 32 29
52 54 54 55 55 55 54 53 53 55 48 49 50 48 38 32 23 21 24 27 28 29 29 30 30 31 30 29 28 26 25 28 27 30 31 32 33 34 34 35 34 34 33
47 50 53 54 54 52 51 51 52 53 55 54 47 46 48 38 29 25 27 28 30 30 28 28 28 29 31 32 33 33 31 30 40 49 38 30 32 33 34 35 35 35 35
52 49 49 49 50 52 54 53 53 57 57 53 51 49 42 42 41 34 28 29 30 30 28 28 30 31 31 31 33 34 35 35 32 30 38 47 35 32 34 35 35 35 36
53 52 48 46 46 50 52 48 48 52 55 47 47 39 38 33 35 36 34 33 29 29 31 30 32 34 34 33 32 32 34 35 35 37 35 31 28 26 26 36 40 37 38
40 45 45 44 44 45 45 44 43 49 51 48 46 45 44 40 34 32 39 37 36 35 30 31 31 35 36 36 35 33 32 31 35 35 35 35 34 32 29 44 48 43 38
35 38 42 42 42 42 43 44 44 41 44 48 48 48 41 32 27 30 33 35 37 41 32 33 33 34 35 37 38 38 37 35 31 30 34 36 37 34 30 28 29 49 46
29 34 38 38 37 37 34 34 33 35 36 38 40 51 48 41 38 31 27 28 30 34 32 31 36 34 35 37 38 39 38 38 37 32 29 29 31 37 38 31 30 30 40
31 31 31 31 31 32 31 31 31 31 30 30 34 43 59 73 86 71 59 46 30 28 27 25 33 36 36 38 39 40 40 39 38 36 34 35 34 30 35 37 33 34 46
40 40 41 42 42 43 45 45 44 43 42 42 50 69 77 78 73 90 97 99 75 54 55 45 41 38 36 39 40 40 41 40 40 44 38 42 43 33 30 35 34 38 49
40 41 42 44 45 45 45 45 46 48 52 56 60 60 60 72 83 89 94 88 95 66 74 69 67 71 59 50 48 43 42 43 48 55 51 44 44 45 38 33 39 53 62
44 44 44 44 43 41 41 40 40 40 42 44 45 46 53 67 72 74 81 82 90 78 79 77 74 76 56 63 70 75 70 60 64 74 85 76 56 54 52 42 38 63 71
53 51 50 49 47 46 45 45 44 42 40 38 40 46 50 49 48 49 55 67 69 65 65 68 68 72 75 70 61 59 80 84 86 89 86 78 62 60 59 62 47 62 62
56 56 54 52 50 50 50 48 46 44 43 42 40 39 39 39 39 38 39 48 83 74 61 55 60 60 63 68 76 78 73 74 86 85 87 97 93 85 75 77 55 52 57
59 55 52 50 50 51 50 47 45 43 42 41 38 37 38 41 40 38 34 31 34 68 79 53 58 61 65 70 68 68 68 70 68 79 95 99 99 98 93 86 64 59 59
60 56 54 54 52 49 45 41 36 30 27 26 26 27 28 32 34 36 38 40 40 42 45 29 32 32 35 38 42 58 65 65 67 61 68 83 97 99 99 99 88 80 74
62 59 54 48 39 27 16 9 7 5 3 1 0 0 3 9 13 18 21 26 35 42 55 48 30 33 32 30 30 35 66 69 74 72 76 73 76 90 99 99 92 81 83
62 55 43 31 22 16 13 10 8 8 7 6 5 4 4 2 2 3 5 5 13 21 36 60 51 35 36 36 40 45 65 75 67 69 72 74 75 74 93 96 99 82 81
59 44 25 15 13 12 12 11 10 9 8 7 6 5 5 4 4 4 5 5 7 14 28 50 56 45 42 38 49 50 47 78 100 91 82 77 75 84 85 70 98 99 94
33 17 13 14 14 14 14 13 12 10 9 8 7 6 6 5 6 6 10 8 22 42 47 72 73 66 51 47 57 53 52 48 44 51 52 88 74 82 80 91 84 98 99
13 13 12 12 14 17 20 19 18 15 13 11 9 8 6 6 6 6 6 11 51 99 95 97 91 90 75 76 66 59 54 51 42 45 43 48 70 56 85 96 96 91 99
11 9 13 20 23 24 24 23 22 19 16 13 11 10 8 8 7 8 7 6 10 33 66 96 92 88 83 83 74 64 57 51 44 40 45 40 56 53 69 93 99 88 96
8 13 21 28 28 28 29 28 23 19 16 13 11 11 11 11 11 12 10 9 8 14 26 57 81 93 93 93 76 65 57 52 45 40 47 60 78 62 63 78 98 98 97
13 26 31 30 32 33 33 27 19 17 14 12 12 14 16 16 15 14 13 11 12 17 25 32 52 79 91 94 76 70 65 75 56 44 48 82 68 96 90 82 99 98 98
32 32 28 34 37 36 30 22 17 14 14 17 20 17 18 23 20 18 14 16 36 37 30 27 50 71 83 93 75 85 97 100 88 70 54 100 75 95 90 98 98 98 99

GFSMA_700_rhum_012.txt.gz
RH
50 50 50 48 51 54 56 56 53 49 43 40 41 35 31 28 22 18 19 21 22 23 25 26 26 26 26 25 24 24 25 27 28 29 30 31 32 33 34 33 33 33 33
51 53 55 56 57 58 57 57 56 55 54 54 52 50 52 51 44 33 21 17 20 23 26 28 28 29 29 29 28 41 30 26 27 28 30 31 33 34 34 34 34 35 35
45 47 51 54 56 56 56 54 54 54 54 55 55 55 53 48 49 48 36 25 21 24 27 29 29 28 29 31 32 32 42 60 67 61 52 44 34 32 33 35 36 35 36
52 46 46 46 47 48 48 48 51 52 52 51 52 54 46 41 40 39 39 37 31 26 26 29 30 29 27 29 31 32 33 34 38 46 57 64 59 58 61 52 37 34 36
41 42 46 46 46 45 45 44 44 49 48 44 46 48 50 41 39 37 33 31 33 34 31 27 30 32 31 30 31 32 32 34 35 36 37 40 44 43 53 52 59 59 48
29 29 32 36 42 44 44 45 46 49 48 45 44 41 47 47 45 44 44 43 42 34 35 34 33 30 32 34 33 34 34 34 33 33 33 34 34 35 38 62 56 56 59
38 39 39 39 45 47 48 49 48 47 45 47 46 40 38 39 40 42 45 42 40 39 38 41 41 39 36 32 34 33 36 36 36 34 32 31 30 30 31 33 39 54 74
33 33 34 35 37 36 36 35 33 33 32 32 33 34 32 30 29 29 28 29 31 35 35 36 40 41 45 42 37 36 35 37 38 38 37 35 33 30 28 29 31 34 36
32 35 36 36 37 37 38 38 39 41 41 42 44 46 50 49 56 51 55 51 54 44 54 67 52 39 45 49 42 44 43 41 41 43 43 40 38 33 32 33 33 29 31
33 33 34 35 36 37 37 38 38 39 39 40 41 44 50 57 83 67 65 76 82 54 54 51 60 72 66 50 44 49 56 53 45 45 50 47 42 40 36 35 36 39 39
40 42 43 45 47 48 48 47 46 44 43 42 40 40 41 44 50 61 48 47 55 67 64 60 59 75 66 74 88 85 77 62 72 62 62 62 46 43 42 44 41 42 42
51 53 54 54 53 52 51 50 49 49 50 49 48 46 44 42 40 41 44 41 44 43 48 56 65 63 63 66 71 83 89 79 72 79 84 89 71 56 52 51 52 54 46
53 52 53 52 52 52 52 51 50 51 52 53 53 52 50 48 47 46 45 42 42 38 37 38 43 49 53 58 70 76 75 77 85 98 100 99 97 92 80 77 89 87 69
59 57 56 55 54 53 51 49 49 50 51 52 50 49 47 46 44 45 50 52 46 42 39 36 37 40 46 55 58 68 68 67 66 69 85 99 100 100 95 94 96 92 80
64 58 54 54 54 55 54 52 50 49 47 44 40 34 29 28 21 22 32 40 52 52 40 30 36 34 35 33 31 35 45 61 70 66 66 82 96 99 100 100 98 91 81
51 52 54 55 55 55 52 47 40 31 23 17 13 10 7 5 4 1 2 10 27 48 55 21 20 26 27 33 34 35 35 34 35 47 60 67 66 77 94 100 100 98 98
50 52 54 55 56 55 45 32 20 15 14 13 12 10 9 8 7 6 5 4 4 20 58 4 9 7 7 11 10 24 28 34 37 33 38 52 61 66 68 82 98 99 99
53 57 59 60 54 41 25 16 14 13 13 12 12 11 10 9 8 7 6 5 6 10 26 9 5 6 6 6 7 9 10 23 35 38 62 52 67 66 75 75 76 85 93
60 62 59 52 33 17 14 12 11 10 11 12 12 13 12 11 10 9 8 7 6 7 8 11 5 5 5 5 6 9 15 16 30 37 46 54 70 94 79 80 80 78 81
65 59 44 24 16 12 10 10 12 15 17 16 17 18 18 17 14 12 10 8 8 8 8 9 6 5 4 4 8 13 9 22 25 42 48 50 51 62 89 83 91 92 86
59 38 22 14 12 9 11 18 20 19 18 17 21 25 23 20 16 14 12 10 10 9 8 8 7 6 5 4 8 15 23 29 26 48 52 56 53 48 45 42 42 75 80
39 25 16 12 8 16 23 21 22 21 23 29 28 26 22 18 15 13 11 13 17 19 16 12 11 10 7 8 16 23 41 55 36 59 58 47 50 46 45 40 39 62 63
30 13 8 15 22 21 19 22 30 33 32 28 24 20 16 14 13 13 16 23 25 22 19 17 15 12 14 22 42 47 56 80 71 72 77 56 55 46 43 40 35 41 52
9 17 23 21 16 18 23 29 31 28 23 20 18 15 14 14 18 25 31 32 30 26 20 13 25 75 80 91 81 44 80 88 77 76 75 61 53 45 40 39 38 51 64
24 22 14 14 18 18 24 27 26 21 19 16 15 16 23 25 24 32 45 38 32 24 15 12 22 41 51 38 62 76 89 97 88 77 72 66 50 55 54 42 41 52 83
17 13 14 19 24 25 24 22 22 20 18 18 18 20 29 33 30 37 43 44 37 24 15 15 19 26 37 50 64 95 97 97 96 86 72 85 83 80 56 41 65 68 77

GFSMA_700_rhum_018.txt.gz
RH
45 46 47 48 50 49 49 49 48 47 47 50 51 50 50 51 52 52 50 47 40 36 28 20 17 19 21 23 24 24 25 25 25 24 24 24 26 27 28 29 29 29 29
42 41 42 43 45 46 46 45 47 48 48 48 47 48 49 49 48 49 50 50 52 54 47 40 38 34 27 22 21 23 26 28 29 29 33 30 28 26 27 28 29 30 31
31 30 35 42 41 43 45 47 49 52 52 52 48 47 46 45 43 44 46 44 45 46 53 53 43 43 44 43 40 32 28 30 32 33 33 34 40 42 47 34 28 28 28
30 32 35 38 43 48 50 50 51 48 47 49 46 46 46 45 42 42 42 43 43 42 42 49 53 49 48 44 40 38 39 38 32 36 40 40 37 42 45 53 60 69 59
37 39 43 45 46 47 48 44 41 39 38 38 37 35 34 33 32 32 32 32 32 31 32 36 41 49 54 54 53 50 47 44 42 41 39 41 44 44 50 51 51 47 54
46 47 45 42 39 37 37 38 38 39 39 37 36 34 34 34 34 34 34 34 34 36 37 38 39 39 38 42 51 56 54 52 52 57 57 53 46 46 45 55 54 50 52
37 36 36 37 37 37 36 36 37 38 39 42 41 38 37 36 30 32 31 33 34 34 34 35 36 39 42 49 54 65 77 73 60 55 56 63 58 58 61 41 40 58 52
31 34 35 36 38 41 43 44 44 43 42 42 41 37 31 24 27 32 32 30 31 34 36 36 37 38 40 40 65 50 76 97 100 99 80 80 66 68 68 62 60 64 65
39 40 41 42 42 44 46 46 44 43 40 40 42 46 42 37 29 28 24 29 29 34 37 40 41 44 45 44 42 43 43 56 90 98 100 94 88 88 75 73 64 60 62
40 40 44 47 48 48 46 43 40 34 30 29 30 34 37 42 43 26 31 31 33 35 38 38 41 42 44 45 45 45 46 48 48 55 68 96 99 95 99 99 94 86 69
45 49 50 48 41 31 23 19 20 23 25 28 32 35 38 40 41 41 30 34 34 29 29 26 26 24 24 26 31 38 45 58 77 75 66 68 84 98 99 100 100 98 96
44 42 39 30 24 18 21 24 27 30 34 38 41 43 44 41 39 35 34 32 31 27 26 24 20 15 13 10 8 13 23 32 38 72 78 84 74 73 96 98 98 99 99
36 33 34 38 27 23 27 30 34 37 39 39 39 38 36 32 28 23 20 23 22 23 22 22 16 13 15 13 11 8 5 4 24 41 49 53 53 58 62 81 97 96 99
34 31 24 24 26 27 33 38 40 41 40 40 40 39 37 36 33 29 22 17 20 22 25 23 14 11 13 12 11 11 9 7 7 15 29 35 40 39 34 35 39 58 80
46 25 25 29 34 37 38 40 40 41 43 44 42 32 20 11 11 11 11 12 16 15 9 7 8 10 15 14 12 11 10 9 8 7 8 15 26 31 34 32 31 29 31
40 30 33 37 37 39 41 41 40 35 22 12 10 9 8 6 6 6 7 9 13 24 26 8 7 8 13 16 16 15 13 11 9 8 7 7 8 10 11 11 18 30 37
31 32 37 40 42 42 40 29 14 10 9 6 5 5 6 7 8 9 10 12 15 20 27 14 16 8 10 14 15 16 14 13 11 10 9 7 6 6 6 6 6 6 13
38 43 43 43 42 30 14 10 8 5 5 5 5 6 8 10 11 12 14 15 16 17 47 34 19 15 12 12 14 22 15 18 12 10 9 8 7 6 6 5 6 6 5
42 43 42 36 18 12 10 7 5 5 4 5 6 8 10 12 13 15 15 16 16 19 17 58 33 61 42 32 44 41 54 24 14 12 10 8 7 6 6 6 5 5 6
44 40 27 14 13 10 6 5 5 5 5 6 6 7 12 15 16 14 14 15 19 20 20 61 83 79 76 44 49 34 25 21 21 54 38 26 11 8 10 6 5 5 5
34 18 14 13 11 6 6 5 5 5 5 5 5 6 10 12 13 14 17 20 25 26 56 94 82 76 36 30 27 27 92 48 20 50 83 83 74 93 87 30 14 8 4
16 16 14 11 6 6 6 6 5 5 6 6 6 7 9 12 14 18 20 23 31 67 93 99 83 44 33 33 36 35 30 26 16 14 55 78 86 83 44 23 20 18 8
18 16 12 7 6 6 6 6 5 6 6 7 9 12 13 17 21 22 23 29 78 99 94 94 83 48 40 39 37 23 22 91 55 24 68 65 31 35 43 69 67 49 40
17 13 8 7 7 7 6 6 6 7 7 9 14 16 17 20 24 28 35 56 100 71 49 48 47 42 48 36 28 35 40 43 37 52 100 89 77 81 82 82 79 71 82
14 9 8 7 7 7 7 7 8 8 8 10 15 19 24 30 35 40 78 100 94 42 38 36 40 42 39 26 34 47 49 88 80 86 98 94 92 90 82 80 94 96 87
10 9 9 8 8 7 7 8 9 10 11 15 21 28 34 37 38 46 96 72 48 38 36 32 34 34 26 24 34 58 89 97 93 88 100 95 98 98 78 88 96 97 98

GFSMA_700_rhum_024.txt.gz
RH
29 30 35 40 43 42 44 44 46 45 44 42 40 39 36 40 41 41 39 38 38 42 43 43 44 44 45 46 46 48 53 54 45 41 35 28 23 23 25 26 26 25 24
31 32 37 40 41 41 39 41 42 42 43 40 39 38 37 36 34 36 36 37 36 35 34 33 32 35 39 43 46 47 52 60 59 49 43 44 45 40 30 26 28 29 28
34 37 39 41 40 46 46 46 47 39 36 34 31 30 31 32 32 34 35 36 35 35 34 34 34 34 34 36 38 37 36 48 56 60 62 53 48 49 46 44 42 45 46
34 36 37 42 44 44 43 40 36 31 30 32 32 33 34 35 36 37 35 34 32 30 31 32 36 38 40 37 37 37 38 41 44 54 63 66 68 70 63 55 51 49 49
36 30 27 31 36 34 33 32 32 33 35 37 38 39 36 31 26 23 22 17 16 17 18 20 21 24 25 21 40 80 59 58 63 53 55 53 55 61 67 72 75 68 59
25 25 28 29 29 31 33 35 37 40 41 36 27 20 18 14 10 9 8 9 9 12 14 15 19 21 21 24 23 40 53 83 79 74 68 58 64 62 59 64 74 75 82
29 30 32 35 38 40 41 40 35 28 26 22 12 7 7 7 8 10 12 12 14 16 23 25 21 23 22 23 25 28 28 37 40 37 55 78 77 71 76 72 79 82 83
39 41 42 41 38 35 31 28 21 13 10 10 8 7 7 7 9 10 11 12 11 12 12 13 15 18 21 22 24 25 26 26 27 27 26 26 39 60 75 78 83 83 100
41 40 38 34 25 16 11 10 9 9 8 8 10 12 11 11 8 8 8 9 10 10 11 11 12 12 11 11 12 13 16 21 25 26 25 25 27 28 36 58 77 86 86
42 37 29 16 11 10 10 10 9 9 9 10 12 16 19 22 20 10 8 8 10 10 9 8 6 5 4 4 4 4 4 4 5 8 14 23 24 24 26 37 42 77 82
37 30 17 11 10 10 9 9 9 10 12 14 16 16 15 15 14 11 9 9 9 8 6 6 5 5 5 5 4 4 3 3 3 3 6 9 17 31 24 26 89 90 94
37 22 12 11 10 9 9 9 11 13 14 15 16 16 14 12 10 8 9 9 8 7 6 6 6 5 4 4 4 4 4 4 4 5 4 6 25 24 89 93 35 44 30
30 15 12 11 10 9 10 12 14 15 16 15 14 14 11 9 7 6 6 7 7 8 8 7 6 5 4 4 5 6 5 6 6 6 7 7 7 24 86 53 21 15 20
25 15 13 12 11 11 13 15 16 15 14 15 15 11 8 7 6 6 6 6 7 8 9 8 6 4 4 4 6 7 8 8 7 7 7 8 7 8 15 18 13 19 12
23 16 14 12 13 15 15 15 14 15 16 16 12 8 7 6 6 6 6 5 5 6 8 7 4 3 4 5 7 14 16 10 8 8 8 8 10 16 70 97 99 98 52
21 16 14 14 15 16 16 15 16 18 18 13 9 7 6 6 6 6 6 5 5 6 5 4 3 4 4 7 11 32 23 15 12 11 17 20 34 59 30 33 74 100 19
20 16 15 16 18 17 17 18 20 18 13 9 7 7 6 6 6 6 6 5 5 7 11 4 5 6 6 9 12 18 20 23 22 20 37 34 26 23 75 73 34 52 77
19 18 18 19 18 18 20 21 18 13 10 8 7 7 6 6 6 6 6 5 6 9 19 18 10 12 15 16 16 18 30 43 65 66 67 32 25 22 30 92 88 26 18
21 20 21 20 20 23 22 17 14 10 9 8 8 7 7 7 6 6 6 7 10 15 22 52 28 29 28 30 44 45 51 46 56 54 40 28 28 30 28 23 23 34 14
21 22 21 22 25 23 18 14 11 11 11 10 8 8 7 7 7 7 9 13 30 58 58 58 94 82 67 69 94 100 63 46 39 40 30 30 34 26 17 21 23 20 22
24 22 25 26 24 20 14 12 14 15 13 10 8 8 8 8 9 12 29 36 59 68 88 100 96 98 98 100 83 72 67 44 32 36 33 26 20 17 20 28 37 35 33
24 27 28 26 21 15 15 18 17 14 10 9 9 9 8 9 11 16 24 32 67 100 100 100 100 99 77 80 61 52 44 41 30 39 36 14 25 23 33 44 60 74 76
28 28 27 21 17 21 22 19 13 11 10 10 10 10 10 12 16 22 26 36 79 100 100 100 98 74 58 64 63 50 48 46 36 28 39 21 38 48 68 77 87 91 94
30 28 24 22 26 24 18 14 12 11 10 11 12 13 14 14 22 34 54 79 99 100 78 76 77 70 89 62 69 62 57 38 39 47 76 54 63 64 75 82 95 96 96
31 28 28 28 25 19 16 13 13 12 11 11 13 15 21 27 34 69 100 100 98 64 64 64 57 62 62 61 67 89 88 92 71 81 90 85 82 78 82 84 96 97 98
32 31 30 25 21 19 16 14 14 15 15 15 14 16 24 34 39 90 100 89 74 64 56 53 54 50 59 80 97 100 100 99 96 83 88 91 90 90 76 86 96 96 96

GFSMA_700_rhum_027.txt.gz
RH
27 28 29 30 30 31 31 32 32 31 30 27 24 23 22 23 26 29 31 32 32 31 32 33 33 34 41 60 69 64 55 54 61 68 63 57 53 42 37 32 28 26 26
30 33 33 32 34 32 28 24 23 24 23 25 26 27 30 32 34 36 36 36 34 35 36 35 35 36 36 39 54 68 73 73 56 61 71 73 76 72 59 46 46 45 39
36 37 35 37 34 28 25 27 26 26 28 30 32 34 35 36 36 35 33 31 28 26 26 26 24 24 36 75 88 92 72 51 64 52 47 61 70 76 78 77 68 56 52
36 34 35 32 31 29 28 29 30 33 35 35 36 35 30 24 19 14 11 11 10 9 9 10 11 13 16 17 28 72 71 58 55 80 75 61 59 61 71 77 84 85 83
34 30 29 29 29 30 34 36 38 38 36 31 24 20 17 12 8 7 7 7 8 8 9 10 12 12 15 15 15 16 16 17 51 80 89 85 84 81 74 68 68 72 84
30 30 31 34 37 40 41 40 35 31 24 14 9 7 7 7 7 7 8 8 11 10 10 11 11 13 16 18 20 22 22 19 19 21 60 79 90 94 84 74 78 80 80
32 37 41 43 42 38 35 30 20 9 8 8 7 7 7 7 7 8 9 9 9 10 10 11 12 13 12 11 10 11 12 15 18 20 20 20 20 56 90 76 86 80 81
42 43 43 42 38 30 19 10 8 8 8 8 7 6 7 8 8 8 7 8 7 7 7 7 8 8 8 8 7 6 6 6 6 8 10 14 18 20 21 24 25 58 80
45 46 43 37 25 14 10 9 8 8 8 7 7 8 8 8 6 7 6 7 7 7 8 8 8 8 7 7 7 6 6 6 5 5 4 4 4 6 11 15 22 25 39
50 47 40 30 14 9 9 9 9 8 7 8 8 9 11 12 10 8 7 7 7 8 8 8 8 8 8 8 8 8 8 8 7 6 6 5 4 4 4 8 16 25 77
51 41 26 13 9 9 9 9 8 8 8 9 9 9 9 10 12 11 9 8 8 9 9 9 10 10 10 10 10 9 8 7 6 5 4 4 3 3 5 20 73 70 67
39 30 21 12 10 10 10 9 9 9 10 10 11 11 13 13 12 10 9 9 10 9 10 9 9 9 10 10 9 8 6 5 4 3 3 3 3 4 6 42 65 92 90
39 33 20 12 11 10 10 10 11 11 11 11 12 14 15 14 11 9 9 9 10 10 10 9 8 8 8 8 6 5 4 3 3 3 3 3 4 4 7 21 68 85 100
46 36 19 13 12 11 11 11 12 12 12 14 14 15 14 12 10 8 8 8 10 10 10 9 8 8 8 6 4 4 4 5 5 5 6 5 5 5 6 17 72 100 100
48 32 19 14 13 12 12 13 12 13 14 14 15 14 12 10 9 8 8 7 6 8 11 10 8 8 6 5 5 8 9 8 9 9 11 10 10 16 60 14 14 24 72
44 27 18 15 14 14 13 13 14 14 14 15 14 13 12 11 10 10 8 7 6 6 6 8 8 7 6 7 11 18 19 20 17 16 17 18 72 99 45 28 26 46 99
34 22 17 15 15 14 15 15 14 15 16 15 14 13 14 16 15 11 8 7 7 8 8 7 7 6 5 8 12 21 43 42 31 29 35 65 70 35 41 34 25 78 69
27 20 17 17 17 16 16 15 16 17 15 15 17 21 21 16 12 8 8 7 8 8 14 10 6 7 10 14 17 23 34 45 50 63 73 58 42 48 40 24 25 48 50
23 20 18 18 17 16 16 18 17 16 18 22 24 20 15 11 10 9 8 9 9 11 14 26 20 20 31 45 51 52 49 43 56 63 60 47 41 34 30 30 34 31 26
21 19 19 17 17 18 19 18 18 20 23 22 18 15 12 10 10 10 10 12 14 19 23 37 74 86 92 76 85 74 49 50 46 43 40 39 42 38 37 30 22 19 16
20 19 18 18 20 20 19 19 22 24 22 20 17 14 12 11 11 12 15 16 20 25 47 98 100 100 96 73 66 57 52 44 41 46 41 32 31 23 20 24 26 27 29
19 19 20 21 21 21 23 25 24 23 22 20 18 15 12 11 12 14 16 21 38 95 100 100 100 99 78 61 58 58 63 56 41 46 40 25 51 33 42 49 55 64 66
20 22 23 22 22 25 26 26 26 25 22 19 16 12 10 12 15 15 16 28 44 98 100 100 98 77 60 56 72 84 65 68 72 76 91 62 83 71 74 75 78 77 79
24 24 24 25 27 28 28 27 24 20 17 14 11 11 13 14 16 28 38 62 100 100 90 75 70 61 78 80 76 89 98 97 94 88 93 79 85 80 84 82 83 82 89
27 26 26 30 30 29 27 22 19 16 12 10 10 13 17 22 32 45 93 100 89 62 64 59 58 63 66 92 100 99 96 99 86 85 88 96 85 83 83 80 85 87 97
28 29 33 33 30 28 22 18 14 11 9 10 10 14 23 37 49 89 100 77 62 62 55 54 56 78 100 100 100 100 99 97 97 88 91 100 94 93 78 76 81 94 95

GFSMA_700_rhum_030.txt.gz
RH
28 27 30 30 31 31 32 30 27 26 26 25 25 26 29 32 34 34 34 32 32 32 32 30 28 29 30 32 47 67 72 77 84 80 74 81 79 79 75 70 60 53 59
35 35 35 34 33 34 29 28 27 27 26 29 32 34 36 36 36 33 28 24 21 18 17 17 16 15 17 18 19 28 50 69 69 72 69 69 74 82 81 80 81 77 64
43 43 41 38 35 34 30 29 29 32 35 37 37 35 30 29 24 20 16 12 9 8 8 8 8 8 8 9 10 14 29 51 80 75 82 62 67 61 60 83 84 84 83
43 42 39 33 32 31 31 36 38 39 37 32 28 24 20 13 9 7 7 8 7 7 7 8 8 9 10 10 10 11 12 17 40 30 47 61 62 65 75 67 75 85 88
41 38 32 32 32 38 40 40 38 34 29 21 11 8 8 7 7 7 7 7 8 8 9 10 9 9 9 10 9 10 11 11 11 12 14 14 17 45 79 81 80 70 74
35 33 32 39 42 41 40 38 34 24 12 8 7 8 8 8 7 7 8 8 9 10 9 8 8 7 8 8 8 8 8 8 8 9 8 8 11 17 38 81 88 85 83
33 39 42 43 43 42 39 29 15 8 8 8 9 9 8 8 8 8 9 8 8 8 8 8 8 8 8 8 8 8 8 8 7 7 7 7 7 8 11 15 35 77 86
40 43 45 48 46 39 27 14 8 8 8 9 10 10 10 10 9 8 8 8 8 8 8 7 7 7 7 7 7 7 7 7 7 7 7 6 6 5 5 5 7 10 17
46 50 51 49 39 26 13 9 8 9 10 10 9 9 9 10 9 8 8 8 9 8 7 7 7 8 8 8 8 8 9 9 9 9 8 8 8 7 6 6 5 4 6
52 53 48 39 26 15 10 9 10 10 10 10 9 8 8 8 8 8 9 9 9 8 7 7 7 8 8 9 9 10 10 10 11 11 11 10 9 9 8 8 7 6 5
51 46 41 30 20 12 11 11 11 10 10 9 9 8 8 8 9 10 9 9 8 8 8 8 8 9 9 10 10 10 11 11 12 11 11 10 8 7 6 5 5 6 8
50 43 34 27 18 13 12 12 11 11 10 10 9 10 10 10 9 9 9 9 8 8 8 8 9 10 11 12 12 11 10 11 11 10 9 7 6 5 5 4 7 7 17
50 43 38 29 18 14 13 12 11 11 11 11 11 11 11 11 11 11 10 9 8 8 9 10 13 14 13 11 10 9 9 9 9 9 8 6 4 4 3 4 16 53 90
56 50 39 25 17 15 13 12 12 12 12 12 11 11 11 12 11 12 12 12 10 11 11 15 15 14 11 8 7 7 7 7 7 6 5 5 4 6 6 6 22 98 98
62 55 36 24 17 14 13 12 12 12 12 11 12 12 12 12 12 15 18 20 20 16 10 14 14 12 8 7 7 8 8 8 7 8 11 13 14 12 12 16 100 100 100
65 50 31 21 17 14 13 13 12 12 12 13 12 12 14 15 16 18 19 19 16 13 14 14 14 10 8 8 9 9 11 14 13 16 23 24 24 25 83 78 67 99 100
61 37 25 19 16 14 13 13 13 13 13 12 14 15 16 16 18 19 19 17 14 11 11 14 12 10 9 8 9 17 44 37 38 31 30 29 32 41 86 93 87 91 77
44 29 21 17 15 14 14 13 13 13 13 13 14 15 17 19 20 20 18 16 13 12 12 11 9 8 8 7 9 17 40 52 63 55 46 39 42 38 40 53 64 48 43
31 22 18 16 15 15 14 14 13 13 14 16 17 20 22 22 19 18 16 13 12 11 12 16 15 12 12 19 33 44 47 55 67 52 43 46 41 36 35 36 35 50 95
25 19 18 16 16 15 15 14 14 15 16 18 22 22 19 17 16 13 12 12 13 15 19 26 38 37 74 82 96 89 59 58 47 43 40 38 39 38 38 35 33 32 31
21 19 17 16 17 16 15 15 15 15 19 22 20 18 17 14 11 10 12 14 20 27 58 90 82 97 100 86 76 67 56 49 41 34 39 54 62 56 49 49 43 29 22
20 18 18 18 18 17 18 18 19 22 24 20 19 18 13 8 8 10 13 18 32 79 92 99 100 93 79 70 61 56 52 53 74 72 76 66 80 70 73 74 72 65 52
18 19 20 19 19 20 21 22 26 25 21 20 17 10 7 8 10 12 17 31 54 82 100 99 92 68 59 53 60 74 88 96 82 71 92 74 84 74 75 74 77 76 73
20 22 21 22 23 24 26 30 27 22 21 17 10 7 8 10 15 27 37 59 83 63 63 62 56 55 66 84 100 100 95 90 85 81 99 86 72 72 81 81 82 84 80
23 23 24 24 26 31 32 29 24 23 19 10 7 8 13 19 32 44 90 66 52 51 49 50 58 84 99 98 100 97 91 98 86 78 97 92 77 81 84 81 88 96 97
23 23 27 32 35 34 31 25 23 17 11 6 6 8 18 35 40 51 60 56 50 48 45 65 84 92 100 100 100 100 99 96 92 74 95 96 84 93 87 82 91 96 96

GFSMA_700_rhum_033.txt.gz
RH
39 38 33 32 34 33 34 34 29 28 28 26 27 31 34 34 34 31 28 27 23 19 16 14 13 12 14 16 20 23 39 52 68 72 86 83 81 82 89 90 84 82 78
37 37 35 33 34 33 30 29 29 26 28 35 36 35 32 26 21 18 16 14 13 10 9 7 7 7 6 7 8 9 12 17 19 30 39 52 64 73 71 79 90 92 87
36 43 40 40 35 31 30 29 29 34 35 35 32 28 23 15 9 8 7 7 7 7 7 7 7 7 7 7 7 8 8 8 10 12 16 31 42 57 59 64 62 72 82
42 43 43 37 32 30 30 38 38 38 37 34 26 16 9 8 8 8 8 8 7 7 7 8 8 8 9 9 8 8 8 9 9 9 10 12 18 31 37 48 58 65 65
44 42 35 32 30 33 38 40 40 38 31 19 10 8 8 8 9 9 8 8 8 8 9 9 9 8 8 8 8 7 7 7 6 7 8 9 10 11 11 16 28 38 61
39 35 32 34 34 37 40 42 39 31 17 9 8 8 9 10 9 9 9 9 9 10 9 8 8 8 8 7 7 7 7 7 7 6 6 6 6 6 6 8 10 13 19
34 34 37 37 39 44 45 40 27 14 8 8 8 9 10 10 10 10 10 10 9 8 9 9 9 9 8 8 7 7 7 7 6 6 6 6 6 6 6 6 6 6 8
35 39 42 47 49 48 37 23 13 10 9 9 10 12 13 12 12 11 10 9 8 8 9 9 9 9 8 7 7 7 7 7 7 7 7 7 7 7 7 7 6 6 6
39 46 51 53 46 36 25 15 11 11 12 12 13 13 13 13 13 12 10 10 10 10 10 10 9 8 8 8 7 7 7 8 8 8 8 9 8 8 8 9 9 8 8
47 51 51 46 36 27 19 14 14 14 15 14 13 11 10 10 10 13 13 12 12 11 9 8 7 6 7 7 7 7 8 8 9 9 9 9 10 10 10 11 11 11 10
51 51 48 41 32 24 18 16 16 16 15 13 12 10 10 10 10 11 13 12 8 6 6 5 5 5 6 7 7 8 9 10 11 12 12 12 12 11 11 12 12 11 10
54 52 51 46 38 25 18 17 17 15 13 12 11 11 11 11 12 12 10 8 6 5 6 6 6 6 7 8 9 10 11 12 13 13 13 12 11 10 10 11 12 11 9
56 58 58 51 40 24 18 18 16 14 12 12 12 12 12 12 12 10 8 6 6 6 6 6 8 10 11 12 13 14 14 14 13 12 11 10 9 10 10 11 10 9 9
58 61 62 55 40 22 19 18 14 13 12 12 12 13 12 12 11 11 10 9 7 7 7 7 9 11 13 15 15 14 14 12 12 11 10 9 9 10 9 8 7 7 7
62 64 64 54 31 21 19 16 14 13 13 13 13 13 12 11 11 12 13 15 16 10 6 8 11 13 15 15 14 12 11 10 10 9 8 8 7 7 7 7 7 7 9
66 67 65 49 25 20 17 15 14 13 13 14 13 12 11 10 11 12 15 17 18 17 14 12 14 14 13 11 10 10 12 16 15 19 21 25 35 26 24 20 17 23 57
70 70 63 34 23 18 15 14 14 14 14 14 13 11 11 11 13 15 16 16 17 16 14 13 10 7 6 7 9 17 30 37 39 38 46 52 44 42 58 50 73 71 45
72 70 46 25 20 16 15 14 14 15 14 13 12 11 13 15 16 17 18 18 14 10 9 7 4 4 7 11 16 32 47 66 89 90 69 51 45 42 61 65 90 70 87
72 56 28 21 18 16 15 16 16 15 14 13 13 15 17 18 19 20 17 12 8 6 7 12 10 14 22 35 33 40 55 73 77 58 46 50 48 44 45 44 41 51 52
63 31 22 18 17 16 17 17 16 15 15 16 18 20 20 21 21 15 9 6 7 9 12 20 26 40 64 57 65 75 66 52 44 43 50 63 69 72 72 69 62 46 37
31 23 19 18 17 17 17 16 15 16 17 18 21 22 23 20 13 7 7 8 12 20 28 36 51 86 68 59 59 52 52 56 67 72 77 70 77 76 76 79 79 74 69
24 20 18 17 18 18 17 18 18 17 19 23 24 24 19 11 6 6 9 15 30 44 71 84 77 61 53 52 55 76 80 83 66 72 92 68 87 76 73 74 72 72 70
21 18 17 19 18 18 19 18 19 20 25 26 24 17 9 6 7 10 15 26 32 49 67 74 54 50 56 84 90 88 86 83 70 79 100 73 84 70 74 72 76 81 84
18 19 21 20 20 20 19 20 22 26 27 23 16 8 6 7 14 23 29 34 40 48 49 44 52 80 92 95 98 94 86 84 78 83 99 85 78 80 84 83 93 98 98
21 23 21 21 21 23 22 25 28 28 24 17 8 5 10 18 26 33 39 43 43 40 42 69 83 86 91 96 100 96 89 91 78 76 95 90 78 80 81 91 99 100 100
23 21 23 25 27 26 30 31 29 24 17 10 5 10 20 27 32 37 46 45 37 50 71 74 80 86 97 100 100 99 97 94 92 74 96 94 87 91 81 82 96 100 88

GFSMA_700_rhum_039.txt.gz
RH
45 45 43 44 42 40 39 38 36 33 30 27 31 33 35 34 32 29 22 14 8 8 8 8 8 8 8 8 8 8 8 8 8 10 14 21 30 48 78 91 97 98 93
45 43 41 42 42 42 38 37 33 30 29 31 33 35 36 31 21 11 8 8 8 9 9 9 9 8 8 8 8 8 8 8 8 8 8 8 9 13 24 43 63 86 96
45 38 33 37 40 41 37 33 28 29 31 32 36 36 28 16 9 8 8 8 9 10 10 10 10 10 10 10 10 9 9 8 8 8 8 8 8 8 9 10 12 17 32
44 35 36 40 41 37 33 30 32 33 38 39 33 20 11 9 8 9 9 10 11 12 12 12 12 11 11 10 10 9 8 8 8 8 8 8 8 7 7 7 8 9 9
62 36 38 42 38 33 33 35 40 41 37 26 16 12 10 10 11 12 13 14 14 13 13 12 12 11 10 10 9 8 9 9 9 10 10 9 8 7 7 6 6 6 6
84 89 44 40 34 35 40 43 39 29 22 16 13 12 13 15 16 16 15 14 14 13 13 12 11 11 10 10 10 10 10 11 11 10 9 8 8 7 7 6 6 6 5
89 79 43 36 37 43 44 39 32 24 18 14 14 15 17 18 17 16 15 14 14 13 12 12 12 12 12 12 12 11 10 8 7 6 6 6 5 5 5 5 5 5 5
77 52 39 40 45 45 42 38 34 28 20 16 16 19 19 18 16 16 15 15 14 14 13 13 13 13 12 10 8 7 6 6 6 6 6 6 6 5 5 5 5 5 5
59 40 40 46 47 46 47 49 45 37 24 18 19 20 20 19 18 16 16 16 15 14 14 14 11 9 8 7 6 6 7 7 7 7 7 7 7 6 6 6 6 5 5
64 40 47 50 50 51 54 52 52 43 25 19 20 21 20 18 18 18 17 18 16 15 13 10 8 7 7 7 8 8 8 9 9 9 8 8 8 8 7 7 7 6 6
44 48 52 53 54 55 56 55 54 50 27 19 21 20 18 17 17 17 18 17 15 12 10 8 7 8 8 9 9 10 10 10 9 8 7 6 6 6 6 6 6 7 7
48 53 55 57 58 60 60 56 54 51 24 19 21 19 18 18 17 16 16 14 12 9 9 9 9 9 10 10 10 9 8 7 6 5 5 6 6 6 6 6 6 8 13
54 57 59 62 65 66 66 61 57 47 20 20 18 17 16 15 16 15 13 11 10 9 10 10 10 11 10 9 8 6 6 6 6 6 4 4 3 3 3 4 5 22 69
57 60 64 68 70 70 70 65 59 30 20 19 17 16 15 16 15 13 11 10 10 10 11 11 11 10 8 7 7 7 5 4 3 3 4 4 5 6 8 8 9 16 21
61 66 69 70 72 74 74 65 48 21 19 17 16 16 16 15 13 12 11 10 10 10 11 10 9 8 8 7 5 4 4 6 9 12 12 12 13 13 14 15 17 22 30
66 68 70 69 74 78 74 61 29 20 18 16 16 17 15 13 12 12 11 11 12 12 9 9 7 7 5 4 5 7 12 17 19 20 22 22 22 22 23 23 23 25 27
67 69 70 71 77 81 70 41 22 18 17 17 17 15 14 13 13 13 13 15 15 14 10 6 6 4 5 7 11 19 27 29 22 20 27 45 55 56 53 52 55 54 49
69 70 71 74 84 78 52 24 19 18 17 18 16 14 14 13 13 15 17 16 14 12 8 5 4 6 8 12 21 24 23 24 39 56 60 63 59 58 64 66 64 61 60
70 72 74 83 84 58 27 20 18 18 18 16 15 14 13 14 16 18 16 14 11 6 5 11 10 12 14 24 22 25 34 53 61 64 69 68 71 72 70 71 68 69 68
74 75 82 87 63 29 21 18 19 19 16 16 16 15 16 17 18 17 14 10 6 7 14 18 21 19 28 28 34 52 53 58 63 66 61 65 70 71 70 73 71 69 67
76 82 87 64 30 21 19 20 19 16 16 15 15 17 19 20 18 14 9 6 10 15 19 21 34 36 31 45 62 61 63 62 59 67 59 56 65 62 64 71 74 78 82
85 88 60 30 22 19 20 19 17 16 14 14 17 20 21 18 15 10 6 11 20 22 24 36 35 32 61 72 71 70 69 67 42 59 57 42 62 61 73 76 83 88 82
86 61 28 22 19 21 20 18 17 14 15 19 21 20 18 15 9 6 9 16 19 26 42 40 38 73 75 79 77 73 72 68 57 65 75 43 64 64 78 90 100 92 84
50 26 22 20 23 19 18 16 14 15 19 22 21 18 16 9 6 9 16 18 22 36 39 47 76 79 85 89 92 86 80 72 69 70 81 48 68 70 75 99 99 96 89
25 21 22 23 19 18 16 14 16 19 20 19 18 16 9 6 10 19 21 22 31 36 52 76 83 85 89 91 97 95 90 85 66 50 85 68 69 72 70 94 96 90 92
21 24 24 20 18 15 15 18 20 20 18 17 17 9 6 12 20 22 27 36 35 58 70 68 73 83 88 94 99 100 95 90 83 50 87 71 74 86 54 66 92 96 91

GFSMA_700_rhum_042.txt.gz
RH
45 46 47 47 43 42 41 40 40 38 34 30 29 32 33 34 34 32 25 15 10 8 8 8 8 9 9 9 9 8 8 8 8 7 7 8 10 15 23 34 60 79 92
46 47 46 44 42 42 42 42 38 34 31 32 32 34 36 35 28 18 10 8 8 8 9 10 10 11 11 11 11 10 10 10 10 9 9 9 9 9 9 10 13 22 49
44 44 44 37 39 45 43 39 34 31 30 32 35 36 31 20 11 9 9 9 9 10 11 12 13 13 13 13 13 12 12 11 10 10 9 8 8 8 8 8 9 10 10
41 46 44 35 41 44 40 34 30 29 35 37 30 21 14 11 10 10 12 13 15 15 15 14 14 14 13 13 12 12 12 11 10 10 9 9 9 9 9 9 8 8 8
44 44 52 40 44 42 34 32 34 37 33 25 19 14 13 12 14 16 17 16 16 15 15 14 14 14 14 13 13 12 12 12 11 11 11 11 11 11 11 10 10 9 8
57 58 90 86 49 36 35 40 40 34 28 23 20 15 14 16 18 18 17 16 16 15 15 15 14 14 14 14 14 14 13 13 13 12 11 10 8 7 6 6 6 6 6
74 84 98 65 44 37 42 43 39 36 38 34 26 18 17 19 20 19 18 17 17 16 16 16 16 15 15 14 14 13 12 10 8 7 6 6 6 6 6 6 6 6 5
88 83 88 56 38 42 46 45 47 47 47 45 32 19 18 19 20 20 19 17 17 17 17 16 16 15 14 13 11 9 7 6 6 6 7 7 8 8 8 8 8 8 7
91 96 90 46 42 48 50 51 51 49 47 47 43 24 18 19 21 20 18 18 17 17 16 16 15 13 11 9 8 7 7 8 8 9 9 9 10 10 10 9 9 9 9
99 96 61 42 48 53 54 54 55 53 51 48 44 28 19 20 21 21 19 18 18 17 16 14 11 10 9 8 9 9 10 10 10 11 10 10 9 9 8 7 7 6 6
99 72 80 49 54 57 58 60 61 63 59 54 47 26 19 21 20 19 19 18 17 16 13 11 10 10 10 10 11 11 11 10 9 8 7 6 5 4 4 4 4 4 4
98 94 51 54 58 61 64 66 68 67 63 56 44 22 20 20 20 19 18 17 15 12 11 11 11 11 11 11 10 9 7 6 5 4 4 3 3 3 3 3 3 4 5
83 100 54 58 62 66 70 71 71 71 66 57 34 21 20 20 19 17 16 14 12 12 12 12 12 12 10 8 6 5 4 4 4 3 3 3 3 3 3 3 3 4 4
99 56 58 62 67 72 73 71 73 74 67 49 26 20 19 18 17 16 14 12 12 12 12 12 11 9 8 6 5 4 4 4 4 4 4 4 4 5 6 7 8 9 11
54 57 62 67 73 73 72 72 77 76 62 35 21 19 18 17 16 14 13 12 12 12 12 10 9 8 7 5 5 4 4 6 6 8 10 12 15 16 13 13 13 14 14
56 62 67 73 75 75 72 73 80 72 44 23 20 18 18 16 14 13 12 12 11 11 9 9 8 7 6 5 5 7 9 11 13 17 18 20 26 34 38 42 43 42 40
61 66 72 77 77 74 72 76 80 56 26 20 18 18 16 14 13 12 12 11 11 11 8 6 6 6 5 6 9 14 20 21 17 22 42 50 50 50 52 50 49 50 51
65 70 76 78 76 74 74 82 66 31 20 18 18 16 14 14 12 12 12 11 10 11 9 6 6 4 5 9 15 24 22 24 42 47 53 58 54 54 56 58 58 59 58
70 75 78 79 76 75 83 70 37 21 19 19 16 15 13 12 12 12 12 11 11 11 9 6 4 6 9 13 22 21 31 52 53 56 59 65 62 60 62 60 62 63 60
75 78 79 78 76 83 73 46 21 19 19 17 16 13 13 14 13 12 12 13 12 8 5 7 12 12 13 24 27 43 53 56 58 62 60 54 47 46 44 50 61 65 68
80 80 79 78 89 78 50 21 19 19 17 16 13 14 14 12 12 13 14 12 7 5 9 17 17 19 26 28 54 59 59 60 59 66 53 49 60 42 42 63 65 69 73
80 81 83 93 89 35 21 19 20 17 15 13 14 14 12 12 14 14 11 6 7 14 18 21 27 32 34 65 68 65 67 64 45 58 79 36 53 37 67 69 81 78 71
84 89 97 85 26 20 20 19 18 15 14 14 14 13 14 15 13 8 5 6 13 19 25 32 33 43 72 76 78 71 68 64 61 68 84 37 52 54 70 82 92 80 81
97 97 49 24 20 21 19 18 14 14 14 14 14 15 15 11 6 5 6 12 18 23 33 36 59 75 80 83 90 84 75 64 60 56 92 56 56 62 64 88 96 96 96
75 28 22 21 21 19 17 14 14 15 14 13 14 14 8 5 5 8 15 19 22 31 40 68 78 79 83 91 96 89 81 80 54 50 83 63 58 64 63 75 89 88 88
24 21 22 20 19 17 14 14 15 15 14 14 12 6 4 5 7 17 22 25 29 42 68 69 67 83 90 90 94 98 93 80 72 57 87 63 64 81 48 61 72 87 86